Regional Weather Roundup
Issued by NWS

Home | Current Version | Previous Version | Graphics & Text | Print | Product List | Glossary On
Versions: 1 2 3 4 5 6 7 8 9 10 11 12 13 14 15 16 17 18 19 20 21 22 23 24 25 26 27 28 29 30 31 32 33 34 35 36 37 38 39 40 41 42 43 44 45 46 47 48 49
000
ASUS45 KBOU 220307
RWRCO

WEATHER ROUNDUP FOR COLORADO
NATIONAL WEATHER SERVICE DENVER/BOULDER CO
900 PM MDT SUN SEP 21 2014

NOTE: "FAIR" INDICATES FEW OR NO CLOUDS BELOW 12000 FEET WITH NO
SIGNIFICANT WEATHER AND/OR OBSTRUCTIONS TO VISIBILITY.

COZ001>005-013-030-031-220400-
...NORTHWEST COLORADO...

CITY           SKY/WX    TMP DP  RH WIND       PRES   REMARKS
CRAIG          CLOUDY    55  49  80 CALM      30.32S
HAYDEN         CLOUDY    57  46  67 NE7       30.32S
MEEKER         NOT AVBL
MOUNT WERNER   NOT AVBL
STEAMBOAT SPGS CLOUDY    53  51  91 N3        30.36R
WALDEN         CLOUDY    50  43  76 W3        30.42F
$$

COZ006>008-011-220400-
...WEST CENTRAL VALLEYS...

CITY           SKY/WX    TMP DP  RH WIND       PRES   REMARKS
GRAND JUNCTION CLOUDY    59  58  96 CALM      30.20S
MONTROSE       PTCLDY    63  55  75 NE3       30.28R
EAGLE          PTCLDY    61  48  63 CALM      30.32R
RIFLE          LGT RAIN  61  58  90 W8        30.27R
DELTA          RAIN      65  59  79 SE9G18    30.21R
NUCLA          LGT RAIN  63  55  77 S3        30.28R
$$

COZ017>023-064>068-220400-
...SOUTHWEST COLORADO...

CITY           SKY/WX    TMP DP  RH WIND       PRES   REMARKS
DURANGO        MOCLDY    65  51  60 E3        30.31R
CORTEZ         TSTM      66  55  67 S37G45    30.27R
PAGOSA SPRINGS MOCLDY    64  45  48 E5        30.40R
TELLURIDE      NOT AVBL
WOLF CREEK PAS CLOUDY    43  39  87 S8        30.67R
$$

COZ009-010-012-014-032>034-037-058>063-220400-
...CENTRAL COLORADO...

CITY           SKY/WX    TMP DP  RH WIND       PRES   REMARKS
ASPEN          LGT RAIN  57  49  74 VRB3      30.36R
BUENA VISTA    CLOUDY    55  52  88 E5        30.47R
COPPER MTN     PTCLDY    46  39  76 SE12      30.67S
BERTHOUD PASS  FAIR      36  34  93 E25       30.71F THUNDER
COTTONWOOD PAS CLOUDY    54  48  82 SE16G22   30.56R
GUNNISON       MOCLDY    63  46  55 E8        30.38R
KREMMLING      MOCLDY    50  45  81 CALM      30.40S
LEADVILLE      MOCLDY    48  47  96 CALM      30.53R
MONARCH PASS   CLOUDY    43  41  93 E15       30.77S VSB<1/4
SALIDA         CLOUDY    58  53  84 E6        30.50S
SUNLIGHT       TSTM      50  45  81 N3        30.59R
WILKERSON PASS NOT AVBL
$$

COZ069>075-220400-
...SAN LUIS VALLEY/SANGRE DE CRISTO MOUNTAINS...

CITY           SKY/WX    TMP DP  RH WIND       PRES   REMARKS
ALAMOSA        CLOUDY    60  48  64 E8        30.38R
LA VETA PASS   CLOUDY    45  45 100 NE9       30.58F
SAGUACHE       NOT AVBL
$$

COZ035-036-038>040-220400-
...NORTHERN COLORADO FRONT RANGE...

CITY           SKY/WX    TMP DP  RH WIND       PRES   REMARKS
DENVER INTL AP LGT RAIN  67  49  52 SW6       30.32R
DMNS CITY PARK   N/A     62  58  87 SW9       30.33R
AURORA         MOCLDY    63  56  78 W7        30.35R
FRONT RANGE AP NOT AVBL
ERIE MUNI ARPT NOT AVBL
BOULDER MUN AP CLOUDY    63  54  72 S3        30.31S
CENTENNIAL     TSTM      60  57  89 W10       30.37R FOG
BROOMFIELD     LGT RAIN  63  55  77 SW5       30.35R
FORT COLLINS   CLOUDY    64  48  55 N7        30.30R
LONGMONT       CLOUDY    66  54  64 CALM      30.32R
$$

COZ041-046-047-076>085-087-088-220400-
...PIKES PEAK/PALMER DIVIDE AND SOUTHERN FOOTHILLS...

CITY           SKY/WX    TMP DP  RH WIND       PRES   REMARKS
COLO. SPRINGS  CLOUDY    64  42  44 S10       30.40R
A. F. ACADEMY  CLOUDY    63  45  52 S16       30.41R
ELLICOTT       NOT AVBL
FALCON         CLOUDY    57  43  58 SE6       30.44R
FORT CARSON    DRIZZLE   64  48  56 S6        30.38R
LIMON          PTCLDY    59  41  51 SE9       30.36R
MONUMENT HILL  MOCLDY    59  43  55 S14G21    30.41R
TRINIDAD       MOCLDY    60  57  89 SW9       30.38R
$$

COZ042>045-048>051-090-091-220400-
...NORTHEAST COLORADO...

CITY           SKY/WX    TMP DP  RH WIND       PRES   REMARKS
GREELEY ARPT   CLOUDY    64  43  45 E15       30.27S
AKRON          MOCLDY    59  42  53 SE10      30.33R
BURLINGTON     MOCLDY    62  39  42 SE9       30.35R
WRAY           CLOUDY    66  41  40 E7        30.32S
STERLING       CLOUDY    68  45  42 SE9       30.29S
HOLYOKE        MOCLDY    66  43  42 SE7       30.32R
FORT MORGAN    MOCLDY    61  41  48 E10       30.31S
$$

COZ086-089-092>099-220400-
...SOUTHEAST COLORADO...

CITY           SKY/WX    TMP DP  RH WIND       PRES   REMARKS
PUEBLO         CLOUDY    70  46  42 SE10      30.30R
LA JUNTA       PTCLDY    65  42  43 SE12      30.30R
LAMAR          CLEAR     63  42  46 E8        30.30R
SPRINGFIELD      N/A     60  43  53 SE8       30.34R
$$



USA.gov is the U.S. government's official web portal to all federal, state and local government web resources and services.